Regional Weather Roundup
Issued by NWS

Home | Current Version | Previous Version | Text Only | Print | Product List | Glossary On
Versions: 1 2 3 4 5 6 7 8 9 10 11 12 13 14 15 16 17 18 19 20 21 22 23 24 25 26 27 28 29 30 31 32 33 34 35 36 37 38 39 40 41 42 43 44 45 46 47 48 49 50
000
ASUS43 KIND 311409
RWRIN

WEATHER ROUNDUP FOR INDIANA
NATIONAL WEATHER SERVICE INDIANAPOLIS IN
1000 AM EDT WED AUG 31 2016

NOTE: "FAIR" INDICATES FEW OR NO CLOUDS BELOW 12,000 FEET WITH NO
SIGNIFICANT WEATHER AND/OR OBSTRUCTIONS TO VISIBILITY.

* - STATION DOES NOT REPORT WEATHER SUCH AS PRECIPITATION OR FOG.

+ - STATION NOT QUALITY CONTROLLED BY THE NATIONAL WEATHER SERVICE.
    USE DATA WITH CAUTION...ESPECIALLY DEWPOINT AND RELATIVE
    HUMIDITY OBSERVATIONS.

INZ001>003-010>013-019-020-311500-
NORTHWEST INDIANA

CITY           SKY/WX    TMP DP  RH WIND       PRES   REMARKS
GARY /AIRPORT/ CLOUDY    75  70  83 N14       30.05S
KNOX *+        CLOUDY    72  59  64 NW3       30.03S
LA PORTE +     MOSUNNY   77  77 100 N7        30.04S
MICHIGAN CITY+ CLOUDY    73  73 100 MISG      30.04S
MONTICELLO +   PTSUNNY   73  67  81 N3        30.02F
RENSSELAER +   CLOUDY    73  72  94 N5        30.04S
VALPARAISO     CLOUDY    75  70  84 NW8       30.04R

$$

LMZ046-743>745-311500-
SOUTHERN LAKE MICHIGAN

STATION/POSITION TIME  TEMP    WIND        PRES    WAVE
                       AIR SEA DIR/SP/G            HT
                 (UTC) (F)     (DEG/KT/KT) (MB)    (FT)
BURNS HARBOR     1305   73     340/  9/ 12 1017.6S
MICHIGAN CITY    1300   73     320/  9/ 10   N/A
5NW MICH CITY    1400   75 72  340/ 10/ 12   N/A     2

$$

INZ004-005-014>016-021>024-311500-
NORTH CENTRAL INDIANA

CITY           SKY/WX    TMP DP  RH WIND       PRES   REMARKS
ELKHART        CLOUDY   N/A N/A N/A NE6       30.03S
GOSHEN         CLOUDY    74  68  81 VRB3      30.03S
LOGANSPORT +   CLOUDY    73  72  94 NW3       30.04S FOG
PERU/GRISSOM   CLOUDY    73  73 100 N6        30.02S FOG
ROCHESTER +    MOSUNNY   77  72  83 N3        30.04S
SOUTH BEND     CLOUDY    74  71  91 NW7       30.03F
WARSAW +       CLOUDY    72  72 100 N3        30.03S FOG

$$

INZ006>009-017-018-025>027-311500-
NORTHEAST INDIANA

CITY           SKY/WX    TMP DP  RH WIND       PRES   REMARKS
ANGOLA *+      CLOUDY    72  64  78 N3        30.03S
AUBURN +       CLOUDY    72  68  88 N3        30.04R FOG
FORT WAYNE     CLOUDY    73  69  87 N5        30.03R FOG
HUNTINGTON +   CLOUDY    70  69  96 CALM      30.02S FOG

$$

INZ028-029-035-036-043>045-051>053-311500-
WEST CENTRAL INDIANA

CITY           SKY/WX    TMP DP  RH WIND       PRES   REMARKS
CRAWFORDSVL +  FOG       70  70 100 CALM      30.04S VSB 3/4
GREENCASTLE +  CLOUDY    72  72 100 CALM      30.04S FOG
LAFAYETTE      CLOUDY    77  70  79 N8        30.02F
TERRE HAUTE    MOSUNNY   73  70  90 CALM      30.03F

$$

INZ030>032-037>040-046>048-054>057-064-065-311500-
CENTRAL INDIANA

CITY           SKY/WX    TMP DP  RH WIND       PRES   REMARKS
ANDERSON       CLOUDY    72  72 100 CALM      30.03F FOG
COLUMBUS       MOSUNNY   73  72  94 CALM      30.04S
INDIANAPOLIS   PTSUNNY   75  71  87 NW6       30.03F
-EAGLE CREEK   CLOUDY    73  70  90 NW3       30.03S
KOKOMO *+      CLOUDY    72  70  94 N6        30.03F
MARION +       PTSUNNY   71  71 100 NW5       30.03F FOG
MT COMFORT *+  MOSUNNY   75  72  88 NW3       30.04S
SHELBYVILLE    PTSUNNY   75  70  84 NW5       30.03S
ZIONSVILLE +   FOG       71  70  99 N3        30.05S VSB 3/4

$$

INZ033-034-041-042-049-050-058-059-311500-
EAST CENTRAL INDIANA

CITY           SKY/WX    TMP DP  RH WIND       PRES   REMARKS
MUNCIE         PTSUNNY   75  71  87 CALM      30.03S FOG

$$

INZ060-061-067>069-081>083-085>088-311500-
SOUTHWEST INDIANA

CITY           SKY/WX    TMP DP  RH WIND       PRES   REMARKS
EVANSVILLE     MOSUNNY   80  71  74 N6        30.03S
HUNTINGBURG *+ MOSUNNY   79  72  78 NW6       30.03S
WASHINGTON +   SUNNY     75  74  99 MISG      30.03S

$$

INZ062-063-066-070>080-084-089>092-311500-
SOUTH CENTRAL AND SOUTHEAST INDIANA

CITY           SKY/WX    TMP DP  RH WIND       PRES   REMARKS
BLOOMINGTON    SUNNY     77  69  76 CALM      30.04S
MADISON *+     SUNNY     75  70  83 CALM      30.05S

$$





USA.gov is the U.S. government's official web portal to all federal, state and local government web resources and services.